Simultaneous Nadir Overpasses (SNOs) Predictions

Prediction of SNOs between AQUA and NOAA-19 Satellite Orbit:

Table of predicted SNOs for the next 14.0 days since TLE Epoch: 5/11/2018
Index Date (AQUA) Time (AQUA) Lat,Lon (AQUA) SZA (AQUA ) Date (NOAA-19) Time (NOAA-19) Lat,Lon (NOAA-19) SZA (NOAA-19 ) Distance(km) Time Diff (sec)
1 05/12/2018 04:01:57 80.84, 80.86 64.71 05/12/2018 04:02:03 80.82, 81.00 64.68 3.19 6
2 05/14/2018 09:35:39 -80.83, 177.54 115.86 05/14/2018 09:35:42 -80.82, 177.70 115.88 2.97 3
3 05/16/2018 15:09:23 80.83, -85.95 63.63 05/16/2018 15:09:16 80.81, -85.87 63.62 2.44 7
4 05/18/2018 20:43:05 -80.82, 10.73 116.88 05/18/2018 20:42:56 -80.81, 10.79 116.89 1.52 9
5 05/21/2018 02:16:48 80.81, 107.49 62.63 05/21/2018 02:16:28 80.81, 107.53 62.64 1.08 20
6 05/23/2018 07:50:30 -80.80,-155.84 117.82 05/23/2018 07:50:09 -80.81,-155.92 117.79 2.11 21
7 05/23/2018 08:39:58 80.83, 11.47 62.23 05/23/2018 08:41:04 80.82, 11.65 62.18 3.30 66
8 05/25/2018 13:24:14 80.82, -59.53 61.82 05/25/2018 13:23:41 80.80, -59.55 61.83 1.72 33




NCC Satellite Simultaneous Nadir Overpasses (SNOs) Prediction Service
